Regional Weather Roundup
Issued by NWS

Home | Current Version | Previous Version | Text Only | Print | Product List | Glossary On
Versions: 1 2 3 4 5 6 7 8 9 10 11 12 13 14 15 16 17 18 19 20 21 22 23 24 25 26 27 28 29 30 31 32 33 34 35 36 37 38 39 40 41 42 43 44 45 46 47 48 49 50
000
ASUS43 KOAX 260902
RWRNE

WEATHER ROUNDUP FOR NEBRASKA
NATIONAL WEATHER SERVICE OMAHA NE
400 AM CDT THU MAY 26 2016

NOTES: SATELLITE DATA IS BEING USED TO AUGMENT CLOUD COVER ABOVE
       12000 FEET.
       "FAIR" INDICATES FEW OR NO CLOUDS BELOW 12,000 FEET WITH NO
       SIGNIFICANT WEATHER AND/OR OBSTRUCTIONS TO VISIBILITY.

  * THESE STATIONS DO NOT REPORT WEATHER SUCH AS RAIN...SNOW OR FOG.

NEZ001>004-019>022-054>056-261000-
NEBRASKA PANHANDLE

CITY           SKY/WX    TMP DP  RH WIND       PRES   REMARKS
SCOTTSBLUFF    CLEAR     44  40  85 NW5       29.94S
ALLIANCE       CLEAR     40  39  97 W6        29.93R
CHADRON        CLEAR     41  38  89 SW5       29.90S
SIDNEY         CLOUDY    48  43  82 NW9       29.94F
$$

NEZ057>060-069>072-079>082-261000-
SOUTHWEST NEBRASKA

CITY           SKY/WX    TMP DP  RH WIND       PRES   REMARKS
NORTH PLATTE   CLOUDY    50  48  93 NW5       29.88R
IMPERIAL       CLEAR     52  48  86 NW5G16    29.92S
LEXINGTON      CLEAR     53  50  89 SW3       29.89R
MCCOOK         CLOUDY    51  49  92 NW6       29.89S
$$

NEZ005>010-023>029-035>040-094-261000-
NORTH CENTRAL NEBRASKA

CITY           SKY/WX    TMP DP  RH WIND       PRES   REMARKS
VALENTINE      CLOUDY    49  46  90 SW6       29.89R
AINSWORTH      MOCLDY    51  48  89 CALM      29.88F
BROKEN BOW     CLEAR     52  50  93 NE5       29.85R
ORD            PTCLDY    54  51  90 NW3       29.84F
$$

NEZ041-046>049-061>064-073>077-083>087-261000-
SOUTH CENTRAL NEBRASKA

CITY           SKY/WX    TMP DP  RH WIND       PRES   REMARKS
GRAND ISLAND   CLEAR     56  52  86 CALM      29.85S
HASTINGS       CLEAR     56  52  86 CALM      29.87R
KEARNEY *      CLEAR     55  50  82 N5        29.88R
YORK           CLEAR     55  54  94 CALM      29.86S
$$

NEZ011>018-030>034-042>045-261000-
NORTHEAST NEBRASKA

CITY           SKY/WX    TMP DP  RH WIND       PRES   REMARKS
NORFOLK        CLEAR     55  52  89 CALM      29.85R
ALBION         CLEAR     56  51  80 N5        29.84F
BLAIR          CLEAR     60  57  89 E6        29.85F
FREMONT        CLEAR     57  56  94 E5        29.86R
TEKAMAH        PTCLDY    58  56  93 S6        29.86R
$$

NEZ050>053-065>068-078-088>093-261000-
SOUTHEAST NEBRASKA

CITY           SKY/WX    TMP DP  RH WIND       PRES   REMARKS
LINCOLN        CLEAR     58  54  86 N7        29.84R
OMAHA EPPLEY   PTCLDY    62  57  83 E7        29.86F
FALLS CITY     CLOUDY    65  61  87 SE6       29.84R
NEBRASKA CITY  CLEAR     62  62  99 NE6       29.86R
PLATTSMOUTH    CLEAR     64  61  90 NE9       29.87S
$$

NEZ044-045-051>053-067-261000-
OMAHA AREA

CITY           SKY/WX    TMP DP  RH WIND       PRES   REMARKS
OMAHA EPPLEY   PTCLDY    62  57  83 E7        29.86F
BLAIR          CLEAR     60  57  89 E6        29.85F
FREMONT        CLEAR     57  56  94 E5        29.86R
OFFUTT AFB     CLEAR     62  58  87 NE6       29.86S
PLATTSMOUTH    CLEAR     64  61  90 NE9       29.87S
WAHOO          FAIR      59  55  87 E7        29.85R
$$



USA.gov is the U.S. government's official web portal to all federal, state and local government web resources and services.